Tracking 19193 objects as of 22-Jun-2018
HD Live streaming from Space Station
objects crossing your sky now

INTELSAT 901

Track INTELSAT 901 now!
INTELSAT 901 is classified as:


NORAD ID: 26824
Int'l Code: 2001-024A
Perigee: 35,782.9 km
Apogee: 35,804.2 km
Inclination: 0.3 °
Period: 1,436.1 minutes
Semi major axis: 42164 km
RCS: 15.9919 m2 (large)
Launch date: June 9, 2001
Source: International Telecommunications Satellite Organization (ITSO)
Launch site: FRENCH GUIANA (FRGUI)

72 C-band, 22 Ku-band, broadcasting, business services, direct-to-home TV broadcasting, telecommunications, VSAT networks; Atlantic Ocean region.
aabbcc
Your satellite tracking list
Your tracking list is empty




NASA's NSSDC Master Catalog

Two Line Element Set (TLE):
1 26824U 01024A   18172.79534260 -.00000227 +00000-0 +00000-0 0  9996
2 26824 000.2551 094.2928 0002518 350.0672 082.3933 01.00272535062438
Source of the keplerian elements: AFSPC